Regional Weather Roundup
Issued by NWS Grand Forks, ND

Home | Current Version | Previous Version | Graphics & Text | Print | Product List | Glossary On
Versions: 1 2 3 4 5 6 7 8 9 10 11 12 13 14 15 16 17 18 19 20 21 22 23 24 25 26 27 28 29 30 31 32 33 34 35 36 37 38 39 40 41 42 43 44 45 46 47 48 49 50
000
ASUS43 KFGF 050931
RWRFGF
PRAIRIE TO PINES  WEATHER ROUNDUP
NATIONAL WEATHER SERVICE EASTERN NORTH DAKOTA/GRAND FORKS ND
400 AM CDT SUN JUL 05 2015

 **SATELLITE DATA USED TO AUGMENT SKY COVER AT AUTOMATED STATIONS**
 *****  WEATHER ACROSS EASTERN NORTH DAKOTA  *****

CITY           SKY/WX    TMP DP  RH WIND       PRES   REMARKS
GRAND FORKS    LGT RAIN  68  66  93 SE10      29.75F
GRAND FRKS AFB CLOUDY    67  65  93 S10       29.76S
GRAND FRKS NWS   N/A     66 N/A N/A SE12        N/A
DEVILS LAKE    MOCLDY    66  61  82 N10       29.74R
FARGO          CLOUDY    72  65  78 SE10      29.74F
WAHPETON ARPT  CLOUDY    66  63  88 SE9       29.79R
$$

 ***** WEATHER ACROSS CENTRAL AND WESTERN NORTH DAKOTA  *****

CITY           SKY/WX    TMP DP  RH WIND       PRES   REMARKS
BISMARCK       CLEAR     69  68  96 E5        29.72S
MINOT          MOCLDY    63  61  93 NW7       29.75F
JAMESTOWN      CLEAR     69  65  86 CALM      29.73F
MINOT AFB      PTCLDY    62  62 100 N8        29.75F
GARRISON         N/A     66  62  87 NE9       29.73F
WILLISTON      CLOUDY    66  62  87 N13       29.83R
DICKINSON      CLEAR     63  60  90 NE8       29.73F
HETTINGER      CLEAR     57  56  96 CALM      29.75S FOG
$$

 *****  OTHER AIRPORT OBSERVATIONS IN OUR AREA  *****

CITY           SKY/WX    TMP DP  RH WIND       PRES   REMARKS
WALHALLA       FAIR      64  64 100 MISG      29.76R
GRAFTON AIRPOR FAIR      64  64 100 SE6       29.75S
VALLEY CITY AR PTSUNNY   68  68 100 S7        29.74S
CANDO          CLOUDY    63  63 100 NE8       29.76F
CAVALIER APRT  PTSUNNY   66  64  94 S8        29.75S
GWINNER          N/A     72  72 100 SE9       29.77S
ROLLA          CLOUDY    61  61 100 N5        29.80F
 ***** THE ABOVE OBSERVATIONS ARE NON NWS ARE NOT QUALITY
       CONTROLLED AND MAY MIS-REPORT RAIN FOR SNOW...
$$

  *****  WEATHER ACROSS NORTHERN MINNESOTA  *****

CITY           SKY/WX    TMP DP  RH WIND       PRES   REMARKS
FLAG ISLAND    NOT AVBL
WARROAD        CLOUDY    64  61  88 SE17G24   29.78F
ROSEAU         CLOUDY    64  59  82 SE14G23   29.78R
HALLOCK        MOCLDY    64  63  94 S5        29.74S
THF RVR FALLS  CLOUDY    64  63  94 SE9       29.79F
BAUDETTE       RAIN      65  61  87 SE8       29.81F FOG
WASKISH        RAIN      64  63  94 CALM      29.85S
CROOKSTON      LGT RAIN  66  64  94 E5        29.79F
$$
  *****  WEATHER ACROSS CENTRAL AND WEST MINNESOTA  *****

CITY           SKY/WX    TMP DP  RH WIND       PRES   REMARKS
FOSSTON        LGT RAIN  63  59  88 E8        29.84F
BEMIDJI        TSTM      64  62  92 N7        29.90R
PARK RAPIDS    MOCLDY    67  63  87 SE9       29.85F FOG
ELBOW LAKE     FAIR      67  64  88 SE10      29.83S
WADENA         MOCLDY    64  63  94 SE5       29.85F FOG
DETROIT LAKES  CLOUDY    70  64  83 SE9       29.83S
MOORHEAD       CLOUDY    72  64  78 S13G18    29.77S
FERGUS FALLS   MOCLDY    70  64  83 SE12      29.81S
MORRIS MN      MOCLDY    66  64  94 SE8       29.83R FOG
STAPLES        PTCLDY    64  63  94 SE5       29.87F
$$
  *****  WEATHER ELSEWHERE ACROSS MINNESOTA  *****

CITY           SKY/WX    TMP DP  RH WIND       PRES   REMARKS
DULUTH         PTCLDY    57  53  86 CALM      29.94R
INTRNTL FALLS  LGT RAIN  66  62  87 SW5       29.83R
ELY            MOCLDY    63  57  82 SW5       29.90F
CLOQUET        MOCLDY    57  55  94 E3        29.93F FOG
WHEATON        PTCLDY    66  63  88 SE8       29.82R
BRAINERD       PTCLDY    65  62  90 S6        29.89S FOG
HIBBING        MOCLDY    57  56  96 SE3       29.91S
ALEXANDRIA     PTCLDY    66  62  87 S7        29.87F
SAINT CLOUD    CLEAR     63  61  93 SE5       29.89F
MINNEAPOLIS    CLEAR     70  60  70 S7        29.93S
$$

  *****  WEATHER ACROSS SOUTH DAKOTA  *****

CITY           SKY/WX    TMP DP  RH WIND       PRES   REMARKS
SIOUX FALLS    CLOUDY    69  62  78 S14G24    29.84F
BROOKINGS      CLOUDY    68  61  77 S10       29.86R
WATERTOWN      CLOUDY    70  64  81 S7        29.86R
HURON          MOCLDY    71  65  81 SE16      29.77S
SISSETON         N/A     73  65  75 S13G20    29.78R
ABERDEEN       CLOUDY    70  67  90 MISG      29.76R
MITCHELL       MOCLDY    72  65  78 CALM      29.79R
PIERRE         CLEAR     69  63  81 S9        29.70F
MOBRIDGE       PTCLDY    72  71  97 E13       29.69S
RAPID CITY     CLEAR     68  62  81 SW5       29.79F
$$

  *****  SOME WEATHER IN NEARBY STATES *****

CITY           SKY/WX    TMP DP  RH WIND       PRES   REMARKS
GLASGOW MT     LGT RAIN  60  55  83 N18       29.90F
GREAT FALLS MT CLOUDY    58  52  80 N15       30.08R
CHEYENNE WY    MOCLDY    66  50  56 SW5       30.03S
SCOTTSBLUFF NE PTCLDY    65  61  87 CALM      29.86F
OMAHA NE       MOCLDY    70  62  76 S13       29.93S
DES MOINES IA  CLEAR     65  59  81 SE7       29.99S
DAVENPORT IA   CLEAR     61  58  90 S5        30.04F FOG
CHICAGO IL     CLEAR     61  57  87 CALM      30.06S FOG
EAU CLAIRE WI  CLEAR     67  61  81 S8        29.95S
LA CROSSE WI   CLEAR     66  63  90 SE7       29.99S
$$

  *****  SOME NATIONAL WEATHER *****

CITY           SKY/WX    TMP DP  RH WIND       PRES   REMARKS
LA GUARDIA NY  CLOUDY    70  59  68 NW6       30.05R
RALEIGH NC     MOCLDY    71  68  90 SW3       30.08R
ATLANTA GA     CLOUDY    69  66  90 W6        30.10R
NEW ORLEANS LA CLOUDY    80  73  79 CALM      30.07R
OKLAHOMA CITY  MOCLDY    74  71  91 S8        29.94F
ALBUQUERQUE NM CLOUDY    69  57  65 SE7       30.13S
SALT LAKE CITY CLOUDY    79  57  46 SE3       29.94S
LOS ANGELES CA CLOUDY    64  60  87 SW3       29.94S
BOISE ID       MOCLDY    79  47  32 NE3       29.81R
SEATTLE WA     CLEAR     70  48  45 CALM      29.81S
$$

*** WEATHER ACROSS MANITOBA...SASKATCHEWAN AND ONTARIO ***
                ***ONTARIO***

CITY           SKY/WX    TMP DP  RH WIND       PRES   REMARKS
GERALDTON      MOCLDY    52  48  87 S8        29.91R
THUNDER BAY    CLEAR     52  50  93 NE3       29.90F
SIOUX LOOKOUT  CLOUDY    64  59  82 VRB2      29.78S
TORONTO        PTCLDY    63  54  72 NW3       30.06S
BIG TROUT LK   MOCLDY    63  63 100 SW7       29.61R
PICKLE LAKE    NOT AVBL
DRYDEN         CLOUDY    61  61 100 VRB2      29.79S
KENORA         CLOUDY    63  63 100 CALM      29.77F FOG
$$
                *** MANITOBA***

CITY           SKY/WX    TMP DP  RH WIND       PRES   REMARKS
BRANDON        CLEAR     55  55 100 NE6       29.82R FOG
DAUPHIN        CLOUDY    55  54  94 SW8       29.81R FOG
ISLAND LAKE    CLOUDY    59  57  94 SW6       29.68R
PILOT MOUND      N/A     59  59 100 N2          N/A
THE PAS        SMOKE     59  54  82 W12       29.76R VSB 3/4
THOMPSON       PTCLDY    45  43  93 NW8       29.70R
WINNIPEG       FOG       63  63 100 S6        29.78R VSB 1/2
LYNN LAKE      CLOUDY    43  41  93 N8        29.80S
CHURCHILL      LGT RAIN  41  39  93 E29G40    29.66R FOG
$$
                ***SASKATCHEWAN***

CITY           SKY/WX    TMP DP  RH WIND       PRES   REMARKS
ESTEVAN        CLOUDY    61  61 100 NW6       29.87R
KINDERSLEY     CLOUDY    52  50  93 W9        30.02
LLOYDMINSTER   CLOUDY    54  48  82 NW9       30.00R
PRINCE ALBERT  MOCLDY    54  50  87 SW6       29.91R
REGINA         CLOUDY    57  55  94 NW6       29.90R FOG
YORKTON        CLOUDY    55  54  94 W3        29.85R FOG
N. BATTLEFORD  PTCLDY    54  46  76 NW9       29.98R
LA RONGE       NOT AVBL
SASKATOON      MOCLDY    54  48  82 NW7       29.95R
SWIFT CURRENT  CLOUDY    55  48  76 NW6       30.01F
$$
NOTE: THESE ARE AUTOMATED STATIONS WITH LIMITED QUALITY CONTROL
      "FAIR" INDICATES FEW OR NO CLOUDS BELOW 12,000 FEET WITH NO
      SIGNIFICANT WEATHER AND/OR OBSTRUCTIONS TO VISIBILITY.
      SKY/WX - SKY CONDITION AND SIGNIFICANT WEATHER.
      TMP - AIR TEMPERATURE.    DP   - DEWPOINT TEMPERATURE.
      RH  - RELATIVE HUMIDITY.  PRES - PRESSURE.
      HX  - HEAT INDEX.         WCI  - WIND CHILL INDEX.
$


USA.gov is the U.S. government's official web portal to all federal, state and local government web resources and services.